Test XHTML 1.0 Strict Page for WU-History Testing
Datos historicos para Xert
Diario Historicos para Julio 23, 2024 unidades:  Imperiales    Metrico   Ambos
« Anterior Dia
Proximo Dia »
Diario Semanal Mensual Anual Personalizado
  Max: Min: Promedio:
Temperatura: 89.6 °F 66.2 °F 78.6 °F
Punto de rocio: 69.8 °F 53.6 °F 61.7 °F
Humedad: 75% 44% 57%
Viento: 14.3mph 0mph 5.8mph
Rafagas: 16.8mph - -
Viento- - SSW
Presion: 30.2 in 30.1 in -
Lluvia: 0 in    
Historical Graphs
 
 
Observa nuestra WebCam, mapa de radar de tormentas para Europa y mapa del radar de nuvosidad

Weather Camera

Radar Tormentas

Radar Sat24

Radar Meteociel





Condiciones meteorologicas Actuales:

Datos tabulados para Julio 23, 2024
Hora Temperatura Punto Rocio Presion Viento Viento Rafagas Humedad Tasa lluvia (1 hora) solar Condiciones
00:00 69.8 °F 62.6 °F 30.1 in NW 1.2 mph 3.7 mph 74% 0 in 0.00 W/m2 unknown
00:05 69.8 °F 62.6 °F 30.1 in Calm   3.7 mph 75% 0 in 0.00 W/m2 unknown
00:14 69.8 °F 60.8 °F 30.1 in WSW 1.2 mph 1.2 mph 74% 0 in 0.00 W/m2 unknown
00:19 69.8 °F 60.8 °F 30.1 in West 1.2 mph 1.9 mph 74% 0 in 0.00 W/m2 unknown
00:24 69.8 °F 60.8 °F 30.2 in WSW 5 mph 5 mph 74% 0 in 0.00 W/m2 unknown
00:29 69.8 °F 60.8 °F 30.1 in West 1.9 mph 5 mph 74% 0 in 0.00 W/m2 unknown
00:34 69.8 °F 60.8 °F 30.1 in Calm   5 mph 74% 0 in 0.00 W/m2 unknown
00:39 69.8 °F 60.8 °F 30.1 in Calm   3.1 mph 74% 0 in 0.00 W/m2 unknown
00:44 69.8 °F 60.8 °F 30.1 in WNW 1.9 mph 1.9 mph 74% 0 in 0.00 W/m2 unknown
00:49 68 °F 60.8 °F 30.1 in WNW 1.2 mph 3.1 mph 74% 0 in 0.00 W/m2 unknown
00:53 68 °F 59 °F 30.2 in WNW 1.9 mph 3.1 mph 73% 0 in 0.00 W/m2 unknown
00:59 68 °F 59 °F 30.1 in NW 1.9 mph 3.1 mph 73% 0 in 0.00 W/m2 unknown
01:04 68 °F 59 °F 30.1 in Calm   3.1 mph 72% 0 in 0.00 W/m2 unknown
01:09 68 °F 59 °F 30.1 in NW 3.1 mph 3.1 mph 71% 0 in 0.00 W/m2 unknown
01:14 68 °F 59 °F 30.1 in Calm   3.1 mph 71% 0 in 0.00 W/m2 unknown
01:19 68 °F 57.2 °F 30.1 in NW 1.2 mph 3.1 mph 70% 0 in 0.00 W/m2 unknown
01:24 68 °F 57.2 °F 30.1 in WNW 3.1 mph 3.1 mph 70% 0 in 0.00 W/m2 unknown
01:29 68 °F 57.2 °F 30.1 in WNW 1.9 mph 3.1 mph 70% 0 in 0.00 W/m2 unknown
01:34 68 °F 57.2 °F 30.1 in WNW 1.2 mph 3.1 mph 70% 0 in 0.00 W/m2 unknown
01:39 68 °F 57.2 °F 30.1 in WNW 1.2 mph 3.1 mph 68% 0 in 0.00 W/m2 unknown
01:44 68 °F 55.4 °F 30.1 in WNW 3.7 mph 3.7 mph 67% 0 in 0.00 W/m2 unknown
01:49 68 °F 55.4 °F 30.1 in WNW 3.1 mph 5 mph 66% 0 in 0.00 W/m2 unknown
01:54 68 °F 55.4 °F 30.1 in WNW 3.7 mph 5 mph 66% 0 in 0.00 W/m2 unknown
01:59 68 °F 55.4 °F 30.1 in WNW 5 mph 5 mph 64% 0 in 0.00 W/m2 unknown
02:04 68 °F 55.4 °F 30.1 in WNW 3.7 mph 5 mph 63% 0 in 0.00 W/m2 unknown
02:09 68 °F 55.4 °F 30.1 in WNW 6.2 mph 6.2 mph 63% 0 in 0.00 W/m2 unknown
02:14 68 °F 53.6 °F 30.1 in WNW 3.7 mph 6.2 mph 62% 0 in 0.00 W/m2 unknown
02:18 68 °F 53.6 °F 30.1 in WNW 3.7 mph 6.2 mph 60% 0 in 0.00 W/m2 unknown
02:24 68 °F 53.6 °F 30.1 in WNW 5 mph 5 mph 60% 0 in 0.00 W/m2 unknown
02:29 68 °F 53.6 °F 30.1 in WNW 6.2 mph 6.2 mph 59% 0 in 0.00 W/m2 unknown
02:34 68 °F 53.6 °F 30.1 in NW 6.8 mph 6.8 mph 59% 0 in 0.00 W/m2 unknown
02:39 68 °F 53.6 °F 30.1 in WNW 6.2 mph 6.8 mph 60% 0 in 0.00 W/m2 unknown
02:43 68 °F 53.6 °F 30.1 in WNW 5 mph 6.2 mph 60% 0 in 0.00 W/m2 unknown
02:49 69.8 °F 53.6 °F 30.1 in NW 6.2 mph 6.2 mph 60% 0 in 0.00 W/m2 unknown
02:54 69.8 °F 53.6 °F 30.1 in WNW 6.8 mph 6.8 mph 60% 0 in 0.00 W/m2 unknown
02:59 68 °F 53.6 °F 30.1 in WNW 3.7 mph 6.8 mph 60% 0 in 0.00 W/m2 unknown
03:04 68 °F 53.6 °F 30.1 in WNW 5 mph 6.8 mph 60% 0 in 0.00 W/m2 unknown
03:09 68 °F 55.4 °F 30.1 in WNW 5 mph 5 mph 61% 0 in 0.00 W/m2 unknown
03:14 69.8 °F 55.4 °F 30.1 in WNW 6.8 mph 6.8 mph 61% 0 in 0.00 W/m2 unknown
03:19 69.8 °F 55.4 °F 30.1 in WNW 8.1 mph 8.1 mph 61% 0 in 0.00 W/m2 unknown
03:24 69.8 °F 55.4 °F 30.1 in WNW 3.7 mph 8.1 mph 60% 0 in 0.00 W/m2 unknown
03:29 69.8 °F 55.4 °F 30.1 in WNW 1.9 mph 8.1 mph 60% 0 in 0.00 W/m2 unknown
03:34 69.8 °F 55.4 °F 30.1 in WNW 3.7 mph 3.7 mph 61% 0 in 0.00 W/m2 unknown
03:39 69.8 °F 55.4 °F 30.1 in NW 5 mph 5 mph 62% 0 in 0.00 W/m2 unknown
03:44 68 °F 55.4 °F 30.1 in WNW 3.7 mph 5 mph 63% 0 in 0.00 W/m2 unknown
03:49 68 °F 55.4 °F 30.1 in WNW 3.7 mph 5 mph 63% 0 in 0.00 W/m2 unknown
03:53 68 °F 55.4 °F 30.1 in WNW 6.2 mph 6.2 mph 64% 0 in 0.00 W/m2 unknown
03:59 68 °F 55.4 °F 30.1 in WNW 5 mph 6.2 mph 64% 0 in 0.00 W/m2 unknown
04:04 68 °F 55.4 °F 30.1 in WNW 6.2 mph 6.2 mph 64% 0 in 0.00 W/m2 unknown
04:09 68 °F 55.4 °F 30.1 in WNW 3.1 mph 6.2 mph 64% 0 in 0.00 W/m2 unknown
04:14 68 °F 55.4 °F 30.1 in WNW 3.7 mph 6.2 mph 64% 0 in 0.00 W/m2 unknown
04:19 68 °F 55.4 °F 30.1 in WNW 3.7 mph 3.7 mph 64% 0 in 0.00 W/m2 unknown
04:23 68 °F 55.4 °F 30.1 in WNW 5 mph 5 mph 64% 0 in 0.00 W/m2 unknown
04:29 68 °F 55.4 °F 30.1 in WNW 3.7 mph 5 mph 64% 0 in 0.00 W/m2 unknown
04:34 68 °F 55.4 °F 30.1 in WNW 8.1 mph 8.1 mph 64% 0 in 0.00 W/m2 unknown
04:39 68 °F 55.4 °F 30.1 in WNW 8.1 mph 8.1 mph 64% 0 in 0.00 W/m2 unknown
04:44 68 °F 55.4 °F 30.1 in WNW 3.7 mph 8.1 mph 64% 0 in 0.00 W/m2 unknown
04:49 68 °F 55.4 °F 30.1 in NW 5 mph 5 mph 65% 0 in 0.00 W/m2 unknown
04:53 68 °F 55.4 °F 30.1 in WNW 3.7 mph 5 mph 65% 0 in 0.00 W/m2 unknown
04:59 68 °F 55.4 °F 30.1 in WNW 5 mph 5 mph 65% 0 in 0.00 W/m2 unknown
05:04 68 °F 55.4 °F 30.1 in WNW 3.7 mph 5 mph 65% 0 in 0.00 W/m2 unknown
05:08 68 °F 55.4 °F 30.1 in WNW 3.7 mph 5 mph 65% 0 in 0.00 W/m2 unknown
05:14 68 °F 55.4 °F 30.1 in WNW 6.2 mph 6.2 mph 65% 0 in 0.00 W/m2 unknown
05:19 68 °F 55.4 °F 30.1 in WNW 5 mph 6.2 mph 65% 0 in 0.00 W/m2 unknown
05:24 68 °F 55.4 °F 30.1 in WNW 5 mph 6.2 mph 65% 0 in 0.00 W/m2 unknown
05:29 68 °F 55.4 °F 30.1 in WNW 1.9 mph 5 mph 65% 0 in 0.00 W/m2 unknown
05:33 68 °F 55.4 °F 30.1 in WNW 3.1 mph 3.7 mph 65% 0 in 0.00 W/m2 unknown
05:39 68 °F 55.4 °F 30.1 in WNW 6.2 mph 6.2 mph 65% 0 in 0.00 W/m2 unknown
05:44 68 °F 55.4 °F 30.1 in WNW 5 mph 6.2 mph 65% 0 in 0.00 W/m2 unknown
05:49 68 °F 55.4 °F 30.1 in WNW 6.2 mph 6.2 mph 65% 0 in 0.00 W/m2 unknown
05:54 68 °F 55.4 °F 30.1 in WNW 3.7 mph 6.2 mph 65% 0 in 0.00 W/m2 unknown
05:58 68 °F 55.4 °F 30.1 in WNW 5 mph 6.2 mph 66% 0 in 0.00 W/m2 unknown
06:04 66.2 °F 55.4 °F 30.1 in WNW 5 mph 5 mph 67% 0 in 0.00 W/m2 unknown
06:05 66.2 °F 55.4 °F 30.1 in WNW 3.7 mph 6.2 mph 67% 0 in 0.00 W/m2 unknown
06:14 66.2 °F 55.4 °F 30.1 in WNW 3.7 mph 6.2 mph 67% 0 in 0.00 W/m2 unknown
06:19 66.2 °F 55.4 °F 30.1 in NW 3.1 mph 5 mph 67% 0 in 0.00 W/m2 unknown
06:24 66.2 °F 55.4 °F 30.1 in WNW 3.7 mph 3.7 mph 67% 0 in 0.00 W/m2 unknown
06:29 66.2 °F 55.4 °F 30.1 in NW 3.7 mph 3.7 mph 67% 0 in 0.00 W/m2 unknown
06:34 68 °F 55.4 °F 30.1 in WNW 6.2 mph 6.2 mph 67% 0 in 0.00 W/m2 unknown
06:39 66.2 °F 55.4 °F 30.1 in NW 3.7 mph 6.2 mph 67% 0 in 0.00 W/m2 unknown
06:44 68 °F 55.4 °F 30.1 in WNW 3.7 mph 6.2 mph 67% 0 in 0.00 W/m2 unknown
06:49 68 °F 55.4 °F 30.1 in WNW 5 mph 5 mph 66% 0 in 0.00 W/m2 unknown
06:54 68 °F 55.4 °F 30.1 in WNW 5 mph 6.2 mph 66% 0 in 0.00 W/m2 unknown
06:59 66.2 °F 55.4 °F 30.1 in WNW 3.1 mph 6.2 mph 67% 0 in 0.00 W/m2 unknown
07:04 66.2 °F 55.4 °F 30.1 in WNW 5 mph 5 mph 67% 0 in 0.00 W/m2 unknown
07:09 68 °F 55.4 °F 30.1 in WNW 5 mph 5 mph 66% 0 in 0.00 W/m2 unknown
07:14 68 °F 55.4 °F 30.1 in WNW 6.2 mph 6.2 mph 65% 0 in 0.00 W/m2 unknown
07:18 68 °F 55.4 °F 30.1 in WNW 3.1 mph 6.2 mph 65% 0 in 0.00 W/m2 unknown
07:24 68 °F 55.4 °F 30.2 in WNW 3.1 mph 6.2 mph 66% 0 in 0.00 W/m2 unknown
07:29 68 °F 55.4 °F 30.1 in WNW 3.1 mph 3.1 mph 66% 0 in 0.00 W/m2 unknown
07:34 68 °F 55.4 °F 30.2 in WNW 3.1 mph 3.1 mph 66% 0 in 0.00 W/m2 unknown
07:39 68 °F 57.2 °F 30.2 in WNW 1.9 mph 3.1 mph 66% 0 in 0.00 W/m2 unknown
07:43 68 °F 57.2 °F 30.2 in WNW 3.7 mph 3.7 mph 66% 0 in 0.00 W/m2 unknown
07:49 69.8 °F 57.2 °F 30.2 in WNW 1.9 mph 5 mph 65% 0 in 0.00 W/m2 unknown
07:54 69.8 °F 57.2 °F 30.2 in Calm   5 mph 65% 0 in 0.00 W/m2 unknown
07:59 69.8 °F 57.2 °F 30.2 in Calm   1.9 mph 65% 0 in 0.00 W/m2 unknown
08:04 69.8 °F 57.2 °F 30.2 in Calm     64% 0 in 0.00 W/m2 unknown
08:09 71.6 °F 59 °F 30.2 in Calm     64% 0 in 0.00 W/m2 unknown
08:14 71.6 °F 59 °F 30.2 in Calm     63% 0 in 0.00 W/m2 unknown
08:19 73.4 °F 59 °F 30.2 in Calm     62% 0 in 0.00 W/m2 unknown
08:24 75.2 °F 59 °F 30.2 in Calm     60% 0 in 0.00 W/m2 unknown
08:29 77 °F 60.8 °F 30.2 in Calm     60% 0 in 0.00 W/m2 unknown
08:33 77 °F 59 °F 30.2 in Calm     55% 0 in 0.00 W/m2 unknown
08:39 77 °F 59 °F 30.2 in Calm     55% 0 in 0.00 W/m2 unknown
08:43 77 °F 60.8 °F 30.2 in Calm     55% 0 in 0.00 W/m2 unknown
08:49 78.8 °F 60.8 °F 30.2 in Calm     54% 0 in 0.00 W/m2 unknown
08:54 78.8 °F 60.8 °F 30.2 in Calm     53% 0 in 0.00 W/m2 unknown
08:59 80.6 °F 60.8 °F 30.2 in SW 1.9 mph 1.9 mph 50% 0 in 0.00 W/m2 unknown
09:04 80.6 °F 59 °F 30.2 in WSW 6.2 mph 6.2 mph 48% 0 in 0.00 W/m2 unknown
09:09 80.6 °F 59 °F 30.2 in West 6.2 mph 8.7 mph 47% 0 in 0.00 W/m2 unknown
09:14 82.4 °F 59 °F 30.2 in WSW 1.9 mph 8.7 mph 47% 0 in 0.00 W/m2 unknown
09:19 82.4 °F 59 °F 30.2 in SW 1.9 mph 3.1 mph 46% 0 in 0.00 W/m2 unknown
09:24 82.4 °F 59 °F 30.2 in ENE 1.9 mph 1.9 mph 45% 0 in 0.00 W/m2 unknown
09:29 82.4 °F 59 °F 30.2 in ESE 3.7 mph 3.7 mph 44% 0 in 0.00 W/m2 unknown
09:34 82.4 °F 59 °F 30.2 in ESE 3.1 mph 3.7 mph 45% 0 in 0.00 W/m2 unknown
09:39 82.4 °F 59 °F 30.2 in ENE 3.7 mph 3.7 mph 45% 0 in 0.00 W/m2 unknown
09:44 82.4 °F 60.8 °F 30.2 in SE 3.7 mph 3.7 mph 45% 0 in 0.00 W/m2 unknown
09:49 82.4 °F 60.8 °F 30.2 in ESE 6.8 mph 6.8 mph 46% 0 in 0.00 W/m2 unknown
09:54 82.4 °F 59 °F 30.2 in SE 6.2 mph 6.8 mph 46% 0 in 0.00 W/m2 unknown
09:59 84.2 °F 59 °F 30.2 in Calm   6.8 mph 46% 0 in 0.00 W/m2 unknown
10:04 84.2 °F 60.8 °F 30.2 in South 5 mph 5 mph 45% 0 in 0.00 W/m2 unknown
10:09 84.2 °F 60.8 °F 30.2 in East 8.1 mph 8.1 mph 45% 0 in 0.00 W/m2 unknown
10:14 82.4 °F 60.8 °F 30.2 in ESE 6.8 mph 8.1 mph 46% 0 in 0.00 W/m2 unknown
10:19 82.4 °F 59 °F 30.2 in ESE 5 mph 6.8 mph 45% 0 in 0.00 W/m2 unknown
10:24 84.2 °F 60.8 °F 30.2 in SSE 8.7 mph 8.7 mph 46% 0 in 0.00 W/m2 unknown
10:29 84.2 °F 60.8 °F 30.2 in SSE 9.9 mph 13 mph 47% 0 in 0.00 W/m2 unknown
10:34 84.2 °F 60.8 °F 30.2 in SE 6.2 mph 13 mph 48% 0 in 0.00 W/m2 unknown
10:39 84.2 °F 62.6 °F 30.2 in SSE 8.1 mph 9.9 mph 48% 0 in 0.00 W/m2 unknown
10:44 84.2 °F 60.8 °F 30.2 in SE 6.2 mph 6.2 mph 48% 0 in 0.00 W/m2 unknown
10:49 84.2 °F 62.6 °F 30.2 in SSE 9.9 mph 9.9 mph 48% 0 in 0.00 W/m2 unknown
10:54 84.2 °F 62.6 °F 30.2 in SSE 8.7 mph 9.9 mph 48% 0 in 0.00 W/m2 unknown
10:58 84.2 °F 62.6 °F 30.2 in ESE 8.7 mph 11.8 mph 49% 0 in 0.00 W/m2 unknown
11:04 84.2 °F 62.6 °F 30.2 in SE 5 mph 11.8 mph 49% 0 in 0.00 W/m2 unknown
11:09 84.2 °F 62.6 °F 30.2 in ESE 6.2 mph 8.7 mph 48% 0 in 0.00 W/m2 unknown
11:14 84.2 °F 62.6 °F 30.2 in ESE 5 mph 8.1 mph 47% 0 in 0.00 W/m2 unknown
11:19 84.2 °F 62.6 °F 30.2 in South 6.8 mph 8.1 mph 47% 0 in 0.00 W/m2 unknown
11:24 84.2 °F 62.6 °F 30.2 in South 9.9 mph 9.9 mph 48% 0 in 0.00 W/m2 unknown
11:29 84.2 °F 62.6 °F 30.2 in South 11.8 mph 11.8 mph 48% 0 in 0.00 W/m2 unknown
11:34 84.2 °F 62.6 °F 30.2 in South 11.8 mph 11.8 mph 48% 0 in 0.00 W/m2 unknown
11:39 84.2 °F 62.6 °F 30.2 in South 8.7 mph 11.8 mph 48% 0 in 0.00 W/m2 unknown
11:44 84.2 °F 62.6 °F 30.2 in SSE 11.2 mph 11.2 mph 49% 0 in 0.00 W/m2 unknown
11:49 84.2 °F 64.4 °F 30.2 in SSE 13 mph 13 mph 49% 0 in 0.00 W/m2 unknown
11:54 84.2 °F 64.4 °F 30.2 in South 11.8 mph 13 mph 49% 0 in 0.00 W/m2 unknown
11:59 86 °F 64.4 °F 30.2 in SSE 11.8 mph 11.8 mph 50% 0 in 0.00 W/m2 unknown
12:04 86 °F 64.4 °F 30.2 in South 11.8 mph 11.8 mph 51% 0 in 0.00 W/m2 unknown
12:14 86 °F 66.2 °F 30.2 in South 8.1 mph 8.7 mph 53% 0 in 0.00 W/m2 unknown
12:19 86 °F 66.2 °F 30.2 in ESE 9.9 mph 11.2 mph 55% 0 in 0.00 W/m2 unknown
12:24 84.2 °F 66.2 °F 30.2 in East 8.7 mph 11.2 mph 55% 0 in 0.00 W/m2 unknown
12:28 84.2 °F 66.2 °F 30.2 in SSE 13 mph 13 mph 55% 0 in 0.00 W/m2 unknown
12:34 84.2 °F 66.2 °F 30.2 in ESE 8.1 mph 13 mph 55% 0 in 0.00 W/m2 unknown
12:39 86 °F 66.2 °F 30.2 in SE 9.9 mph 13 mph 54% 0 in 0.00 W/m2 unknown
12:44 86 °F 66.2 °F 30.2 in ESE 9.9 mph 11.8 mph 55% 0 in 0.00 W/m2 unknown
12:49 86 °F 68 °F 30.2 in East 8.1 mph 9.9 mph 56% 0 in 0.00 W/m2 unknown
12:54 86 °F 68 °F 30.2 in ESE 11.2 mph 11.2 mph 55% 0 in 0.00 W/m2 unknown
12:59 86 °F 68 °F 30.2 in ESE 11.8 mph 11.8 mph 56% 0 in 0.00 W/m2 unknown
13:04 86 °F 68 °F 30.2 in ESE 8.1 mph 13 mph 55% 0 in 0.00 W/m2 unknown
13:09 86 °F 68 °F 30.2 in ESE 9.9 mph 9.9 mph 56% 0 in 0.00 W/m2 unknown
13:14 86 °F 68 °F 30.2 in ENE 8.7 mph 13 mph 56% 0 in 0.00 W/m2 unknown
13:19 86 °F 68 °F 30.2 in ESE 11.8 mph 13 mph 56% 0 in 0.00 W/m2 unknown
13:24 86 °F 68 °F 30.2 in South 13 mph 13 mph 55% 0 in 0.00 W/m2 unknown
13:29 86 °F 68 °F 30.2 in SE 6.8 mph 14.9 mph 55% 0 in 0.00 W/m2 unknown
13:34 86 °F 68 °F 30.2 in East 8.1 mph 8.1 mph 55% 0 in 0.00 W/m2 unknown
13:39 86 °F 68 °F 30.2 in SE 8.7 mph 11.8 mph 55% 0 in 0.00 W/m2 unknown
13:44 86 °F 68 °F 30.2 in SE 9.9 mph 11.8 mph 53% 0 in 0.00 W/m2 unknown
13:49 86 °F 68 °F 30.2 in ESE 6.8 mph 11.2 mph 53% 0 in 0.00 W/m2 unknown
13:53 86 °F 68 °F 30.2 in East 6.2 mph 11.8 mph 53% 0 in 0.00 W/m2 unknown
13:59 87.8 °F 68 °F 30.2 in SE 13 mph 13 mph 54% 0 in 0.00 W/m2 unknown
14:04 87.8 °F 68 °F 30.2 in SE 9.9 mph 13 mph 53% 0 in 0.00 W/m2 unknown
14:09 87.8 °F 68 °F 30.2 in SSW 9.9 mph 13 mph 54% 0 in 0.00 W/m2 unknown
14:14 87.8 °F 68 °F 30.2 in SSE 11.8 mph 14.9 mph 53% 0 in 0.00 W/m2 unknown
14:18 87.8 °F 68 °F 30.2 in ESE 8.7 mph 14.9 mph 53% 0 in 0.00 W/m2 unknown
14:24 87.8 °F 68 °F 30.2 in South 13 mph 13 mph 54% 0 in 0.00 W/m2 unknown
14:29 87.8 °F 68 °F 30.2 in South 13 mph 13 mph 53% 0 in 0.00 W/m2 unknown
14:34 87.8 °F 69.8 °F 30.2 in SE 11.2 mph 14.9 mph 53% 0 in 0.00 W/m2 unknown
14:39 87.8 °F 69.8 °F 30.2 in ESE 11.2 mph 11.2 mph 53% 0 in 0.00 W/m2 unknown
14:44 87.8 °F 68 °F 30.2 in SE 11.8 mph 11.8 mph 53% 0 in 0.00 W/m2 unknown
14:48 87.8 °F 68 °F 30.2 in SSE 11.8 mph 11.8 mph 52% 0 in 0.00 W/m2 unknown
14:54 87.8 °F 68 °F 30.2 in SSE 13 mph 16.8 mph 52% 0 in 0.00 W/m2 unknown
14:59 87.8 °F 68 °F 30.2 in SSE 14.3 mph 16.8 mph 52% 0 in 0.00 W/m2 unknown
15:04 87.8 °F 68 °F 30.2 in SE 11.8 mph 14.3 mph 51% 0 in 0.00 W/m2 unknown
15:09 87.8 °F 68 °F 30.2 in ESE 11.8 mph 14.3 mph 52% 0 in 0.00 W/m2 unknown
15:14 87.8 °F 68 °F 30.2 in ESE 9.9 mph 14.3 mph 52% 0 in 0.00 W/m2 unknown
15:19 87.8 °F 68 °F 30.2 in SE 8.7 mph 11.2 mph 52% 0 in 0.00 W/m2 unknown
15:24 87.8 °F 68 °F 30.2 in ESE 8.7 mph 13 mph 52% 0 in 0.00 W/m2 unknown
15:28 87.8 °F 68 °F 30.2 in ESE 11.8 mph 11.8 mph 52% 0 in 0.00 W/m2 unknown
15:34 87.8 °F 68 °F 30.2 in ESE 11.2 mph 11.8 mph 52% 0 in 0.00 W/m2 unknown
15:39 87.8 °F 68 °F 30.1 in ESE 9.9 mph 11.2 mph 52% 0 in 0.00 W/m2 unknown
15:44 87.8 °F 68 °F 30.2 in ESE 11.2 mph 11.8 mph 51% 0 in 0.00 W/m2 unknown
15:49 87.8 °F 68 °F 30.2 in ESE 13 mph 13 mph 51% 0 in 0.00 W/m2 unknown
15:54 87.8 °F 68 °F 30.1 in ESE 8.7 mph 8.7 mph 51% 0 in 0.00 W/m2 unknown
15:59 87.8 °F 68 °F 30.1 in SSE 9.9 mph 13 mph 51% 0 in 0.00 W/m2 unknown
16:04 89.6 °F 68 °F 30.1 in ESE 11.2 mph 11.2 mph 50% 0 in 0.00 W/m2 unknown
16:09 87.8 °F 68 °F 30.1 in ESE 8.7 mph 11.2 mph 50% 0 in 0.00 W/m2 unknown
16:14 87.8 °F 68 °F 30.1 in ENE 6.8 mph 11.2 mph 50% 0 in 0.00 W/m2 unknown
16:19 87.8 °F 68 °F 30.1 in ESE 11.2 mph 11.2 mph 51% 0 in 0.00 W/m2 unknown
16:24 89.6 °F 68 °F 30.1 in ESE 8.7 mph 14.3 mph 52% 0 in 0.00 W/m2 unknown
16:29 89.6 °F 68 °F 30.1 in ESE 11.8 mph 13 mph 51% 0 in 0.00 W/m2 unknown
16:34 87.8 °F 68 °F 30.1 in ENE 8.7 mph 13 mph 52% 0 in 0.00 W/m2 unknown
16:39 87.8 °F 68 °F 30.1 in ENE 9.9 mph 9.9 mph 52% 0 in 0.00 W/m2 unknown
16:44 87.8 °F 68 °F 30.1 in East 9.9 mph 13 mph 52% 0 in 0.00 W/m2 unknown
16:49 87.8 °F 68 °F 30.1 in East 8.7 mph 11.2 mph 52% 0 in 0.00 W/m2 unknown
16:54 89.6 °F 68 °F 30.1 in East 11.2 mph 11.2 mph 52% 0 in 0.00 W/m2 unknown
16:59 87.8 °F 69.8 °F 30.1 in East 8.7 mph 11.2 mph 52% 0 in 0.00 W/m2 unknown
17:04 87.8 °F 68 °F 30.1 in ENE 8.1 mph 8.1 mph 52% 0 in 0.00 W/m2 unknown
17:09 89.6 °F 69.8 °F 30.1 in East 8.1 mph 11.2 mph 52% 0 in 0.00 W/m2 unknown
17:14 89.6 °F 68 °F 30.1 in ESE 11.8 mph 11.8 mph 51% 0 in 0.00 W/m2 unknown
17:18 89.6 °F 68 °F 30.1 in East 9.9 mph 11.8 mph 51% 0 in 0.00 W/m2 unknown
17:24 89.6 °F 68 °F 30.1 in East 9.9 mph 11.8 mph 48% 0 in 0.00 W/m2 unknown
17:29 89.6 °F 68 °F 30.1 in SSE 13 mph 13 mph 49% 0 in 0.00 W/m2 unknown
17:34 89.6 °F 68 °F 30.1 in South 9.9 mph 13 mph 49% 0 in 0.00 W/m2 unknown
17:39 89.6 °F 68 °F 30.1 in South 11.2 mph 11.2 mph 48% 0 in 0.00 W/m2 unknown
17:44 89.6 °F 68 °F 30.1 in SW 9.9 mph 11.2 mph 48% 0 in 0.00 W/m2 unknown
17:49 89.6 °F 68 °F 30.1 in SSW 8.7 mph 11.2 mph 49% 0 in 0.00 W/m2 unknown
17:54 89.6 °F 68 °F 30.1 in South 6.8 mph 9.9 mph 48% 0 in 0.00 W/m2 unknown
17:59 89.6 °F 68 °F 30.1 in South 11.2 mph 11.2 mph 48% 0 in 0.00 W/m2 unknown
18:04 89.6 °F 66.2 °F 30.1 in South 13 mph 13 mph 47% 0 in 0.00 W/m2 unknown
18:05 89.6 °F 66.2 °F 30.1 in ESE 5 mph 13 mph 47% 0 in 0.00 W/m2 unknown
18:14 89.6 °F 66.2 °F 30.1 in SSE 9.9 mph 13 mph 47% 0 in 0.00 W/m2 unknown
18:18 89.6 °F 66.2 °F 30.1 in South 8.7 mph 13 mph 46% 0 in 0.00 W/m2 unknown
18:24 89.6 °F 66.2 °F 30.1 in South 11.8 mph 13 mph 47% 0 in 0.00 W/m2 unknown
18:29 89.6 °F 66.2 °F 30.1 in SSW 9.9 mph 11.8 mph 47% 0 in 0.00 W/m2 unknown
18:34 89.6 °F 66.2 °F 30.1 in SSW 11.2 mph 11.2 mph 47% 0 in 0.00 W/m2 unknown
18:39 89.6 °F 66.2 °F 30.1 in South 8.1 mph 11.2 mph 47% 0 in 0.00 W/m2 unknown
18:44 89.6 °F 66.2 °F 30.1 in South 11.8 mph 11.8 mph 46% 0 in 0.00 W/m2 unknown
18:49 89.6 °F 66.2 °F 30.1 in South 14.3 mph 14.3 mph 46% 0 in 0.00 W/m2 unknown
18:54 89.6 °F 64.4 °F 30.1 in SSW 6.8 mph 14.3 mph 45% 0 in 0.00 W/m2 unknown
18:59 87.8 °F 64.4 °F 30.1 in SSW 8.1 mph 11.8 mph 45% 0 in 0.00 W/m2 unknown
19:04 87.8 °F 64.4 °F 30.1 in South 11.8 mph 11.8 mph 45% 0 in 0.00 W/m2 unknown
19:09 87.8 °F 64.4 °F 30.1 in SSW 8.7 mph 11.8 mph 45% 0 in 0.00 W/m2 unknown
19:14 87.8 °F 64.4 °F 30.1 in SSW 9.9 mph 11.8 mph 46% 0 in 0.00 W/m2 unknown
19:19 87.8 °F 64.4 °F 30.1 in South 8.1 mph 11.2 mph 46% 0 in 0.00 W/m2 unknown
19:24 87.8 °F 64.4 °F 30.1 in South 6.8 mph 8.7 mph 46% 0 in 0.00 W/m2 unknown
19:28 87.8 °F 64.4 °F 30.1 in SW 6.8 mph 8.7 mph 46% 0 in 0.00 W/m2 unknown
19:34 87.8 °F 64.4 °F 30.1 in SW 6.2 mph 8.7 mph 46% 0 in 0.00 W/m2 unknown
19:39 87.8 °F 64.4 °F 30.1 in SSW 6.8 mph 6.8 mph 46% 0 in 0.00 W/m2 unknown
19:44 87.8 °F 64.4 °F 30.1 in SSW 6.8 mph 6.8 mph 46% 0 in 0.00 W/m2 unknown
19:49 87.8 °F 64.4 °F 30.1 in South 11.8 mph 11.8 mph 46% 0 in 0.00 W/m2 unknown
19:54 87.8 °F 64.4 °F 30.1 in SSW 8.1 mph 14.3 mph 47% 0 in 0.00 W/m2 unknown
19:59 87.8 °F 64.4 °F 30.1 in SSW 8.1 mph 8.7 mph 47% 0 in 0.00 W/m2 unknown
20:03 86 °F 64.4 °F 30.1 in SW 3.1 mph 8.1 mph 47% 0 in 0.00 W/m2 unknown
20:09 86 °F 64.4 °F 30.1 in South 8.7 mph 8.7 mph 47% 0 in 0.00 W/m2 unknown
20:14 86 °F 64.4 °F 30.1 in SSW 5 mph 8.7 mph 47% 0 in 0.00 W/m2 unknown
20:19 86 °F 64.4 °F 30.1 in South 5 mph 8.7 mph 48% 0 in 0.00 W/m2 unknown
20:24 86 °F 64.4 °F 30.1 in SSE 3.7 mph 6.2 mph 48% 0 in 0.00 W/m2 unknown
20:29 86 °F 64.4 °F 30.1 in South 5 mph 5 mph 48% 0 in 0.00 W/m2 unknown
20:34 86 °F 64.4 °F 30.1 in SSW 8.1 mph 8.1 mph 49% 0 in 0.00 W/m2 unknown
20:39 84.2 °F 64.4 °F 30.1 in SW 3.1 mph 8.1 mph 49% 0 in 0.00 W/m2 unknown
20:44 84.2 °F 64.4 °F 30.1 in Calm   6.2 mph 49% 0 in 0.00 W/m2 unknown
20:48 84.2 °F 64.4 °F 30.1 in Calm   3.1 mph 49% 0 in 0.00 W/m2 unknown
20:54 84.2 °F 64.4 °F 30.1 in SW 3.7 mph 3.7 mph 50% 0 in 0.00 W/m2 unknown
20:59 84.2 °F 62.6 °F 30.1 in SW 3.7 mph 3.7 mph 51% 0 in 0.00 W/m2 unknown
21:04 82.4 °F 62.6 °F 30.1 in SW 5 mph 5 mph 51% 0 in 0.00 W/m2 unknown
21:09 82.4 °F 62.6 °F 30.1 in South 5 mph 6.2 mph 52% 0 in 0.00 W/m2 unknown
21:14 82.4 °F 62.6 °F 30.1 in South 5 mph 6.2 mph 52% 0 in 0.00 W/m2 unknown
21:19 82.4 °F 62.6 °F 30.1 in SSW 3.7 mph 5 mph 53% 0 in 0.00 W/m2 unknown
21:24 80.6 °F 62.6 °F 30.1 in SW 3.1 mph 5 mph 53% 0 in 0.00 W/m2 unknown
21:29 80.6 °F 62.6 °F 30.1 in Calm   3.1 mph 55% 0 in 0.00 W/m2 unknown
21:34 80.6 °F 62.6 °F 30.1 in Calm     56% 0 in 0.00 W/m2 unknown
21:39 78.8 °F 62.6 °F 30.1 in Calm     57% 0 in 0.00 W/m2 unknown
21:44 78.8 °F 62.6 °F 30.1 in Calm     58% 0 in 0.00 W/m2 unknown
21:49 78.8 °F 62.6 °F 30.1 in Calm     59% 0 in 0.00 W/m2 unknown
21:54 77 °F 62.6 °F 30.1 in Calm     59% 0 in 0.00 W/m2 unknown
21:59 77 °F 62.6 °F 30.1 in Calm     60% 0 in 0.00 W/m2 unknown
22:04 77 °F 62.6 °F 30.1 in Calm     61% 0 in 0.00 W/m2 unknown
22:08 77 °F 62.6 °F 30.1 in Calm     61% 0 in 0.00 W/m2 unknown
22:14 77 °F 62.6 °F 30.1 in West 3.1 mph 3.1 mph 62% 0 in 0.00 W/m2 unknown
22:19 75.2 °F 62.6 °F 30.1 in WNW 3.7 mph 3.7 mph 63% 0 in 0.00 W/m2 unknown
22:24 75.2 °F 62.6 °F 30.1 in WNW 3.7 mph 3.7 mph 63% 0 in 0.00 W/m2 unknown
22:29 75.2 °F 62.6 °F 30.1 in WNW 3.1 mph 3.7 mph 64% 0 in 0.00 W/m2 unknown
22:33 75.2 °F 62.6 °F 30.1 in WNW 1.9 mph 3.1 mph 64% 0 in 0.00 W/m2 unknown
22:39 75.2 °F 62.6 °F 30.1 in WNW 1.9 mph 1.9 mph 64% 0 in 0.00 W/m2 unknown
22:44 75.2 °F 62.6 °F 30.1 in Calm   1.9 mph 64% 0 in 0.00 W/m2 unknown
22:49 75.2 °F 62.6 °F 30.1 in Calm   1.9 mph 65% 0 in 0.00 W/m2 unknown
22:54 75.2 °F 62.6 °F 30.1 in WNW 3.1 mph 3.1 mph 65% 0 in 0.00 W/m2 unknown
22:59 75.2 °F 62.6 °F 30.1 in WNW 3.1 mph 3.1 mph 66% 0 in 0.00 W/m2 unknown
23:04 73.4 °F 62.6 °F 30.1 in WNW 3.1 mph 3.1 mph 66% 0 in 0.00 W/m2 unknown
23:09 73.4 °F 62.6 °F 30.1 in WNW 3.1 mph 3.1 mph 66% 0 in 0.00 W/m2 unknown
23:14 73.4 °F 62.6 °F 30.1 in WNW 3.1 mph 3.1 mph 66% 0 in 0.00 W/m2 unknown
23:19 73.4 °F 62.6 °F 30.1 in WNW 3.1 mph 3.1 mph 66% 0 in 0.00 W/m2 unknown
23:24 73.4 °F 62.6 °F 30.1 in WNW 1.2 mph 3.1 mph 66% 0 in 0.00 W/m2 unknown
23:29 73.4 °F 62.6 °F 30.1 in Calm   3.1 mph 66% 0 in 0.00 W/m2 unknown
23:33 73.4 °F 62.6 °F 30.1 in Calm     67% 0 in 0.00 W/m2 unknown
23:39 73.4 °F 62.6 °F 30.1 in WNW 3.1 mph 3.1 mph 68% 0 in 0.00 W/m2 unknown
23:44 73.4 °F 62.6 °F 30.1 in WNW 3.1 mph 3.1 mph 68% 0 in 0.00 W/m2 unknown
23:49 73.4 °F 62.6 °F 30.1 in WNW 1.9 mph 3.1 mph 68% 0 in 0.00 W/m2 unknown
23:50 73.4 °F 62.6 °F 30.1 in WNW 1.2 mph 3.1 mph 68% 0 in 0.00 W/m2 unknown
23:55 73.4 °F 62.6 °F 30.1 in Calm   1.9 mph 67% 0 in 0.00 W/m2 unknown
Datos historicos para Xert